User: anonymous   Login
Location: *
(50.6089°N, 2.2719°E)
Time: 14:49:59
(UTC+00:00)
Language:

Cosmos 1939 Rocket - Orbit

View from above orbital plane
View from above orbital plane
View from above satellite
View from above satellite

Ground track
Ground track

The orbit data is extracted from the following two-line orbital elements,

1 19046U 88032B   21020.46432511  .00000879  00000-0  69059-4 0  9999
2 19046  97.3911  37.7706 0037071 186.3019 173.7745 15.02829787769845
Epoch (UTC): 20 January 2021 11:08:37
Eccentricity: 0.0037071
inclination: 97.3911°
perigee height: 532 km
apogee height: 584 km
right ascension of ascending node: 37.7706°
argument of perigee: 186.3019°
revolutions per day: 15.02829787
mean anomaly at epoch: 173.7745°
orbit number at epoch: 76984

The dashed part of the orbit path shows where the satellite is in the earth's shadow,  

DLR